CZ-6A DEB, 60892

Orbit data source: Space-Track

CZ-6A DEB, 60892 is space debris in LEO originally from a launch on Tue, 06 Aug 2024 UTC launched from the Taiyaun Space Center, China (TSC). Debris objects in space refer to the collection of defunct objects orbiting the Earth. Examples of debris include non-operational satellites, rocket bodies, and fragments generated from explosions, collisions, or faulty payload assembly.

Loading next visibility...
Identifier
60892, 2024-140KX
Orbit
LEO
Country
Flag of CNCN / PRC
Related business
Manufacturer
SAST
Mission
Spacecraft
Bus & Motor
Unknown
Mass
Unknown
Launch date (UTC)
2024-08-06 (2 years ago)
Launch vehicle
Unknown
Launch site
Taiyaun Space Center, China (TSC)
Object type
Payload
Rocket body
Debris
Shape & HBR
Unknown shape, 0.1 m
Radar Cross Section
Medium (>0.1 m² and <1 m²)

Expand to show TLE details & history
Last TLE update: 17 hours ago

TLE from 17 hours ago
0 CZ-6A DEB
1 60892U 24140KX  26171.28139213  .00000580  00000-0  26283-3 0  9999
2 60892  89.1240 284.2376 0054626 140.4405 220.0792 14.19891717 95109
Epoch: 2026-06-20T06:45Z
TLE epoch observation values (Epoch: 2026-06-20T06:45:12.280Z)
Latitude
0.00001°
Longitude
-85.56183°
Altitude
858.978 km
Speed
7.407 km/s
True Right ascension
18h 56m 57s
True Declination
0° 00' 00"
Sunlit
Object was in full shadow at epoch
Visualization orbit readout
Latitude
Unknown
Longitude
Unknown
Altitude
Unknown
Speed
Unknown
Apparent Right ascension
Unknown
Apparent Declination
Unknown
Sunlit
N/A
Visualization observer readout
Local Sidereal Time
10:18:01
Azimuth
Unknown
Elevation
Unknown
Doppler factor
Unknown
Orbital elements
Apogee altitude
862.005 km
Perigee altitude
783.334 km
Semi-major axis
7,200.807 km
Eccentricity
0.00546
Inclination
89.124°
RAAN
284.2376°
Arg. of periapsis
140.4405°
True anomaly
219.67827°
Mean anomaly
220.0792°
Eccentric anomaly
219.87853°
Mean motion
3.55199 °/min
Orbital period
101.35 mins
BSTAR
0.00026283
Loading maneuver chart data...
Computing Atmospheric mass density...
Loading historical data...
Loading historical data...
Loading historical data...
Loading historical data...
Loading historical data...
Loading historical data...
Loading historical data...

Documentation

Showing up to 5 results
|